GEFSMA_500_meanwind_138.txt.gz
Wind_Speed
27 25 24 24 22 21 21 20 20 20 20 20 21 23 24 25 26 27 28 29 30 31 32 33 34 35 35 36 37 37 38 39 39 39 38 38 37 36 36 35 35 35 35
28 26 26 25 23 22 21 21 21 21 21 22 23 24 25 26 27 28 29 30 31 32 33 34 35 35 36 37 37 38 39 39 39 39 38 37 36 36 36 35 35 35 34
28 27 27 26 24 23 23 22 22 22 23 23 24 25 27 28 28 29 30 31 32 33 34 35 35 36 37 37 38 38 39 39 38 38 38 37 37 36 36 35 35 35 35
29 28 28 27 25 24 24 23 23 24 24 25 26 27 28 29 29 30 31 32 33 34 35 35 36 37 37 38 38 39 39 39 38 38 38 38 37 37 36 36 37 37 37
30 29 28 27 26 25 25 25 25 25 26 26 27 28 29 30 30 31 32 33 34 34 35 36 37 37 38 38 39 39 39 39 38 38 38 38 38 38 37 37 38 38 38
30 30 29 28 27 26 26 26 26 27 27 27 28 29 30 30 31 32 32 34 34 35 36 37 37 38 38 39 39 40 39 39 39 39 39 39 39 39 39 39 39 39 40
31 30 29 28 27 27 27 27 27 28 28 28 29 30 30 30 31 32 33 34 35 36 37 37 38 38 39 39 40 40 40 39 39 39 39 40 40 40 41 41 41 41 41
31 31 30 29 28 28 28 28 28 28 29 29 30 31 31 31 32 33 34 35 35 36 37 38 38 39 39 40 40 40 40 40 40 40 41 41 41 42 42 43 43 43 44
32 31 30 30 30 29 29 29 29 30 30 31 31 31 32 32 33 34 35 35 36 37 37 38 38 39 40 40 40 40 41 41 41 41 42 43 43 44 44 45 45 46 46
33 32 31 31 31 31 31 31 31 31 31 31 32 32 33 33 34 34 35 36 36 37 38 38 39 39 40 40 40 41 42 42 42 42 43 45 45 46 47 48 48 49 49
34 33 33 33 32 32 32 32 31 32 32 32 32 33 33 34 35 35 35 36 37 37 38 38 39 39 40 41 41 42 43 43 43 44 45 47 48 49 51 51 52 53 53
35 34 34 34 33 33 33 32 32 32 33 33 34 34 34 35 35 35 36 36 37 38 38 39 39 40 41 42 42 43 44 44 45 46 47 49 51 52 53 55 56 56 56
34 34 34 34 34 34 34 33 33 33 33 34 35 35 35 36 36 36 37 37 38 38 38 39 40 41 41 42 43 44 45 46 46 48 50 52 53 55 57 58 58 58 58
35 35 35 35 35 34 34 33 33 33 34 35 35 35 36 36 36 37 37 38 38 38 38 39 40 41 42 43 44 45 46 47 49 51 53 55 57 59 60 60 59 59 59
36 36 36 35 35 34 34 34 34 34 35 35 36 36 36 36 37 37 38 38 38 38 39 39 40 41 42 43 45 46 47 49 51 53 56 57 59 61 61 60 60 59 59
36 36 36 36 36 35 35 35 35 36 36 36 36 36 36 36 37 38 38 38 39 39 39 40 41 42 43 44 46 47 49 51 53 56 58 60 61 61 60 60 60 60 60
36 35 35 35 36 36 36 36 36 36 36 36 36 36 36 37 37 38 38 39 39 39 40 40 42 42 43 45 47 49 51 53 55 58 60 62 62 62 61 62 61 60 60
37 37 36 36 36 36 36 36 36 36 36 36 36 37 37 37 37 37 38 39 39 40 41 41 42 43 44 46 48 50 52 55 57 60 62 63 62 62 62 62 61 62 62
38 37 37 37 36 36 36 36 36 36 36 36 37 36 36 37 37 37 38 38 39 41 41 42 42 44 45 47 49 51 54 57 60 62 63 63 63 62 62 62 62 62 62
40 39 38 38 37 37 37 36 36 36 36 36 37 36 36 36 37 38 37 37 39 40 41 42 43 45 47 49 51 53 56 59 61 62 63 63 62 62 63 63 63 62 62
41 40 40 40 39 38 37 36 37 36 36 37 36 35 35 36 36 37 37 37 39 40 41 43 44 46 48 50 52 55 57 60 61 62 62 62 62 63 63 63 62 61 60
42 42 41 40 39 38 37 37 36 37 36 36 35 35 35 35 36 37 37 37 38 40 42 43 45 47 49 52 54 57 58 60 61 61 61 61 62 62 61 60 59 59 58
43 41 40 39 39 38 37 36 36 35 35 35 34 35 35 36 36 36 36 37 39 41 42 44 46 48 51 53 56 58 59 61 61 61 60 60 61 61 59 58 57 57 56
42 41 40 39 39 38 37 36 35 35 34 34 34 34 34 35 36 36 37 38 40 42 43 45 48 50 52 55 57 59 60 60 60 60 60 60 60 58 57 56 56 55 54
41 40 39 39 38 37 36 35 34 34 34 34 34 34 34 35 35 36 37 39 41 42 44 46 49 51 54 56 58 58 58 58 58 59 60 59 58 56 55 54 54 53 52
40 39 38 37 36 35 34 33 33 33 33 34 33 33 33 34 35 36 38 39 41 43 45 47 50 52 54 57 58 58 57 57 58 58 58 57 56 55 54 53 52 51 50

GEFSMA_500_meanwind_144.txt.gz
Wind_Speed
33 32 30 29 27 26 24 23 23 22 21 21 20 20 20 20 20 22 23 24 25 26 27 29 30 31 33 34 35 36 37 37 38 38 39 39 39 39 39 38 38 38 37
34 33 31 29 28 27 26 25 24 22 22 22 21 21 21 21 22 23 24 25 26 28 28 29 31 32 34 35 36 37 37 38 38 39 40 40 40 39 39 39 39 39 38
34 33 32 30 29 28 27 26 25 24 23 23 22 22 22 22 23 24 25 26 28 29 29 30 32 33 34 36 37 37 38 38 39 40 40 40 40 40 40 40 40 40 39
35 34 33 31 30 29 28 27 26 25 24 23 23 23 23 24 25 25 26 27 28 29 30 31 33 34 35 37 37 38 38 39 40 41 41 41 41 41 41 41 41 41 40
35 35 33 32 31 30 29 27 27 26 25 25 24 24 25 25 26 26 27 28 29 30 31 33 34 35 36 37 38 39 39 39 40 41 41 41 42 42 42 42 42 42 42
35 35 34 32 31 30 29 28 28 27 26 26 25 26 26 27 27 28 29 30 31 32 33 34 35 36 37 38 39 40 40 40 41 42 42 42 43 43 43 43 43 43 44
35 35 34 33 32 31 30 29 28 28 27 27 27 27 28 28 28 29 30 31 32 33 34 35 36 37 38 39 40 41 41 41 42 42 43 43 44 44 44 44 45 45 46
36 35 34 33 32 31 30 30 29 28 28 28 28 28 29 29 30 30 31 32 33 34 35 36 37 38 39 40 41 41 42 42 43 43 44 44 45 46 46 46 47 47 48
36 35 34 33 32 31 30 29 29 29 28 28 29 29 29 30 31 31 32 33 34 35 36 37 38 39 40 41 41 42 42 43 43 44 45 46 46 47 47 48 49 50 51
37 36 35 34 33 32 31 30 30 29 29 29 29 29 30 31 31 32 33 34 35 36 37 38 39 40 40 41 42 43 43 44 44 45 46 47 47 48 49 50 51 53 54
37 36 36 35 34 33 32 31 30 30 30 30 30 30 31 32 32 32 33 34 36 37 38 39 40 40 41 42 42 43 44 44 45 46 47 48 49 50 51 52 54 55 56
37 36 36 35 34 33 33 32 31 31 31 31 31 32 33 33 33 33 34 35 36 38 39 40 41 41 42 42 43 44 44 45 46 47 48 49 51 52 53 55 57 58 59
38 37 36 36 35 34 34 33 33 32 32 33 33 33 34 34 34 34 35 36 37 38 39 40 41 42 43 43 44 44 45 46 47 48 49 51 53 54 56 58 59 61 60
39 39 38 37 36 35 35 35 34 34 34 34 34 34 35 35 35 35 36 37 38 38 39 40 41 42 43 44 45 45 46 47 48 50 51 53 55 57 59 60 62 62 61
40 40 39 38 37 36 36 36 35 35 34 35 35 35 35 35 35 36 37 38 39 39 39 40 42 43 43 44 45 45 46 48 50 52 54 56 58 59 61 62 62 61 60
41 41 40 39 38 37 37 36 35 35 36 36 36 35 36 35 36 36 37 38 39 40 40 41 42 43 43 45 45 46 47 49 52 54 56 58 60 61 62 62 61 60 59
41 41 41 40 39 38 37 36 36 36 37 36 36 36 36 36 37 37 38 39 40 41 42 42 43 43 44 45 45 47 49 51 54 56 58 60 61 62 62 61 59 58 58
41 41 41 40 39 38 37 36 36 36 37 37 37 36 36 37 37 38 38 39 40 41 42 42 43 43 44 45 46 48 50 53 55 57 59 61 61 61 61 60 59 58 57
42 41 41 40 38 37 36 36 36 36 36 37 36 36 36 37 37 38 39 40 40 42 42 42 43 43 44 46 47 49 52 54 56 58 59 60 61 60 60 59 58 57 58
43 41 40 39 38 37 37 36 36 36 36 36 36 36 37 37 37 38 39 40 41 41 41 42 42 43 46 47 49 50 52 55 56 58 59 60 59 59 59 59 58 58 59
43 41 40 39 38 38 37 36 36 36 36 37 37 37 37 37 37 38 39 39 40 40 41 42 43 45 46 47 49 51 53 55 56 58 59 59 59 59 59 58 58 58 59
45 43 40 40 40 39 38 37 37 36 37 37 36 35 36 37 37 37 38 39 39 40 40 41 43 45 46 48 50 52 54 55 56 57 59 59 58 58 58 58 58 58 59
44 44 43 41 41 39 38 37 37 38 37 37 36 35 35 36 36 37 38 38 39 40 41 42 43 45 47 49 51 53 54 55 56 58 58 57 58 59 58 58 58 58 58
45 45 45 43 42 41 40 40 39 38 37 36 36 35 35 35 36 37 37 38 39 40 41 42 44 46 47 50 51 53 54 56 57 58 57 58 58 59 60 58 57 58 58
46 45 44 44 43 43 42 41 39 37 37 36 35 34 34 35 35 36 37 38 38 39 41 42 44 45 47 49 51 53 54 55 57 57 57 58 58 58 59 58 57 57 57
46 46 45 43 43 42 41 40 39 38 37 36 35 34 34 35 35 36 37 37 38 39 41 42 43 45 47 49 51 52 54 55 56 56 57 58 58 58 57 57 57 57 57

GEFSMA_500_meanwind_150.txt.gz
Wind_Speed
40 38 37 35 34 32 31 30 28 27 25 24 23 22 21 21 21 21 21 21 21 22 22 23 24 25 26 27 29 30 31 33 34 35 36 37 37 38 38 38 39 39 39
41 40 38 36 35 33 32 30 29 28 26 25 24 23 23 22 22 22 22 22 23 23 23 24 25 26 28 29 30 32 33 34 36 37 37 38 39 39 39 39 40 40 40
42 41 39 38 36 34 33 31 30 29 28 27 26 25 25 24 23 23 23 24 24 24 25 26 27 28 29 30 32 33 34 36 37 38 39 39 40 40 41 41 41 41 42
43 42 40 39 37 35 34 32 31 30 29 28 27 27 26 25 25 25 25 25 25 26 26 27 28 29 31 32 33 35 36 37 38 40 40 41 41 41 41 42 42 42 43
45 43 41 40 38 36 35 33 32 31 30 29 28 28 27 26 26 26 26 26 27 27 28 28 29 30 32 33 35 36 37 38 40 41 41 42 42 42 42 43 43 44 44
46 44 42 40 39 37 36 35 33 32 31 30 29 29 28 27 27 27 27 27 28 28 29 30 31 32 33 34 36 37 39 40 41 42 43 43 43 44 44 44 45 45 46
46 45 43 41 40 38 37 35 34 33 32 31 30 29 28 28 28 28 28 29 29 29 30 31 32 33 34 36 37 39 40 41 42 43 43 44 44 44 45 45 46 47 47
47 45 44 42 40 39 38 36 35 33 32 31 31 30 29 29 29 29 29 30 30 31 31 32 33 34 36 37 38 40 41 42 43 44 44 45 45 46 46 47 47 48 50
47 46 44 42 41 39 38 36 36 34 33 32 32 31 30 29 29 29 30 31 32 32 32 33 34 36 37 38 40 41 42 43 44 44 45 46 46 47 48 48 49 50 52
47 46 44 43 41 39 38 36 35 35 34 33 32 31 31 30 30 30 31 32 32 33 33 34 36 37 38 39 40 42 43 43 44 45 45 46 47 48 49 50 51 52 53
47 46 45 43 41 40 38 37 36 35 34 33 32 32 31 31 31 31 32 33 33 33 34 35 36 38 39 40 41 42 43 44 45 45 46 47 48 49 50 51 52 54 55
47 45 44 43 41 40 39 37 36 35 34 33 33 32 32 32 32 32 32 33 34 34 35 36 37 38 39 40 42 43 43 44 45 46 47 48 49 50 52 53 54 55 56
46 44 43 43 42 41 40 38 37 36 35 34 33 33 33 33 33 33 33 34 34 35 36 36 38 39 40 41 42 43 44 45 46 47 48 49 50 52 53 54 55 56 57
47 45 43 42 42 42 41 39 38 36 36 35 35 34 33 34 33 34 34 35 35 35 36 37 38 39 41 42 43 44 44 45 46 47 48 50 51 53 54 55 55 57 58
48 45 43 43 42 42 41 40 38 37 37 36 36 35 35 35 34 34 35 35 36 36 36 38 39 40 41 43 44 44 45 46 47 48 49 51 52 53 54 55 57 58 59
48 46 44 44 43 42 41 40 40 38 37 37 36 36 35 35 35 35 36 36 36 37 37 39 40 40 41 43 44 45 45 46 47 49 50 52 54 55 55 56 58 59 59
49 47 46 45 43 42 41 40 40 39 38 37 36 36 35 35 36 36 36 36 37 38 38 39 40 40 41 43 44 45 45 46 48 50 51 53 54 55 56 57 59 59 58
49 48 47 46 45 43 42 41 40 39 38 37 36 36 36 36 36 36 36 36 37 38 38 39 39 40 42 43 44 44 46 47 49 50 52 54 55 56 57 58 59 59 58
49 49 48 46 44 42 42 41 40 39 38 37 36 36 36 36 35 36 37 37 38 38 38 39 40 41 42 43 44 45 46 48 49 50 53 54 55 56 57 58 59 59 59
50 49 48 46 44 42 41 41 40 39 38 37 37 35 35 35 36 36 37 38 38 38 39 40 40 41 42 43 44 45 47 48 49 51 53 55 56 57 57 58 59 60 60
50 49 47 46 44 42 40 39 39 38 38 37 36 35 35 35 36 37 37 37 38 38 39 40 40 41 42 43 44 45 46 48 50 53 54 56 56 56 57 58 59 60 60
49 49 48 46 44 42 40 38 37 37 37 36 35 35 36 37 36 36 37 37 38 38 38 40 40 40 41 42 43 45 47 49 51 53 55 55 55 56 57 58 60 60 60
50 49 47 46 44 41 40 39 36 36 36 35 35 36 36 36 36 36 36 37 37 37 38 39 39 40 41 42 44 46 47 49 51 52 54 55 56 57 58 59 60 60 60
50 48 46 45 44 42 40 39 38 37 36 36 36 36 36 36 35 36 36 36 36 36 37 37 38 39 40 42 44 46 47 49 50 52 54 55 56 57 58 59 59 59 59
49 47 46 45 44 42 41 39 38 37 37 36 36 36 36 35 34 35 35 35 35 36 37 37 38 39 40 42 43 45 47 48 50 52 54 55 56 57 58 58 58 58 58
47 46 44 43 43 42 41 40 39 38 37 36 36 35 34 34 34 34 34 35 36 36 36 36 38 39 40 41 42 44 46 48 51 53 54 55 56 56 56 57 58 57 56

GEFSMA_500_meanwind_156.txt.gz
Wind_Speed
46 45 43 42 40 39 38 36 34 33 32 31 30 29 28 27 26 25 24 24 24 24 24 24 24 25 26 27 28 29 29 31 32 33 34 36 37 38 39 40 41 42 42
48 46 45 44 42 40 39 38 36 34 33 32 31 30 29 28 27 26 26 25 25 25 25 25 26 26 27 28 29 30 31 32 34 35 36 37 39 40 41 42 43 43 44
49 48 46 45 44 42 40 39 37 36 34 33 32 30 29 29 28 27 27 26 26 26 26 26 27 27 28 29 30 31 32 34 35 37 38 39 40 41 42 43 44 44 45
51 50 47 46 45 43 41 40 38 36 35 33 32 31 30 29 28 28 28 27 27 27 27 27 28 29 29 30 32 33 34 35 37 38 39 40 41 42 43 44 45 45 46
52 51 50 47 46 44 42 41 39 37 36 34 32 31 31 30 29 29 29 28 28 28 28 28 29 30 31 32 33 34 35 37 38 39 40 41 43 43 44 45 45 46 47
53 52 51 49 46 45 44 42 40 38 37 35 33 32 31 30 30 30 30 29 29 29 29 29 30 31 32 33 34 35 37 38 39 40 42 43 44 44 45 46 46 48 49
54 53 52 50 47 45 44 42 41 39 38 36 35 33 32 31 31 31 30 30 30 30 30 30 31 32 33 34 35 36 38 39 40 41 42 43 45 45 46 47 48 49 50
54 52 52 49 47 46 44 42 41 40 38 37 36 35 34 33 32 31 31 31 31 31 31 31 32 33 34 35 36 37 39 40 41 42 43 44 45 46 47 49 49 50 51
55 53 52 50 48 47 46 43 41 40 39 38 37 36 35 34 34 32 32 32 32 31 31 32 33 34 35 36 37 39 40 41 42 43 44 45 47 47 49 50 50 51 52
55 52 51 51 49 47 46 45 43 41 40 38 37 36 36 35 34 33 33 33 32 31 32 32 33 34 36 37 38 39 40 42 43 44 45 46 47 48 49 50 51 52 53
56 52 51 50 48 46 46 44 43 41 40 39 38 37 36 35 35 34 33 32 32 32 33 33 34 35 36 37 38 39 41 42 43 44 45 47 48 49 50 51 52 53 54
56 53 51 49 47 46 45 43 42 42 41 39 38 37 36 35 35 33 33 33 33 33 34 34 35 36 37 38 39 40 41 42 43 44 46 47 48 50 51 52 53 54 55
56 53 50 49 47 46 45 43 42 42 40 38 37 37 36 36 35 34 33 34 34 34 34 35 36 37 38 39 40 41 42 42 44 45 46 47 49 50 52 53 54 55 56
56 55 52 49 47 46 44 43 42 41 39 38 37 36 36 36 35 34 34 34 34 34 35 35 36 37 38 39 40 41 41 43 44 45 46 48 50 51 52 53 54 56 57
57 53 51 49 47 45 44 43 42 41 39 39 38 37 36 36 35 34 34 35 35 35 34 35 36 37 38 39 40 41 42 43 45 46 48 49 50 52 52 53 55 57 59
56 53 49 48 47 45 44 43 42 41 39 38 38 37 36 36 35 34 35 35 35 34 34 35 37 37 38 39 41 41 42 44 45 47 48 49 51 52 53 54 56 58 60
55 53 50 47 46 44 44 43 42 40 39 38 37 36 36 35 35 34 34 34 34 34 34 35 36 37 38 39 40 41 43 45 46 47 48 50 51 52 54 56 58 59 60
53 52 50 48 46 44 44 42 41 40 38 37 37 37 36 35 35 35 34 33 34 34 34 35 36 37 38 39 40 42 44 45 45 47 48 50 51 53 55 57 58 59 59
52 51 49 47 45 44 44 43 41 40 38 37 37 36 36 35 34 34 33 33 34 34 35 36 37 37 38 39 41 42 44 44 45 47 48 50 52 54 56 57 58 59 60
52 51 49 47 43 43 43 43 41 40 38 37 36 35 35 34 33 33 33 33 32 33 35 35 36 37 38 40 41 43 43 44 45 47 49 50 52 54 55 57 58 59 60
50 50 49 47 44 42 41 40 40 39 37 36 35 34 33 33 33 33 32 32 32 33 35 35 35 37 39 41 42 42 43 44 45 47 49 50 52 54 55 56 58 59 60
49 48 47 47 44 41 39 38 39 38 36 35 34 33 33 33 32 32 31 31 32 34 34 35 35 37 39 40 41 42 43 44 45 47 48 50 52 53 54 56 58 59 60
49 48 47 45 43 41 39 39 39 38 37 36 34 33 33 33 32 31 31 32 33 34 34 35 36 37 38 39 41 41 42 44 45 46 48 50 51 53 55 57 58 59 59
48 47 46 43 41 41 41 40 39 39 39 37 35 34 33 31 31 31 32 32 32 32 33 34 36 37 38 38 39 41 42 43 45 46 48 50 51 54 56 57 58 58 58
47 46 45 43 42 41 40 39 38 38 38 36 34 33 32 31 30 31 32 32 31 32 33 34 35 36 37 38 39 41 42 43 44 46 48 50 51 53 55 56 57 57 56
47 46 45 43 41 40 40 39 38 38 37 35 35 34 32 31 31 31 31 31 30 31 33 34 35 36 37 38 40 41 42 43 45 46 48 50 52 53 53 54 56 55 54

GEFSMA_500_meanwind_162.txt.gz
Wind_Speed
51 49 48 46 44 43 41 40 39 37 36 35 33 32 31 29 28 27 27 26 26 26 25 25 26 26 27 27 28 29 29 30 31 32 33 34 35 36 37 38 39 40 40
54 52 51 49 48 45 43 41 40 39 38 36 35 33 32 31 30 28 27 27 27 27 26 26 26 27 28 29 29 30 30 31 32 32 34 35 36 37 38 39 40 41 41
56 55 53 51 50 47 45 44 42 41 39 38 36 34 32 31 30 29 28 28 28 27 27 27 27 28 29 30 30 31 31 32 32 34 35 36 37 38 39 40 41 41 42
58 57 55 52 51 49 47 45 43 42 41 39 37 35 34 32 31 30 29 29 29 29 29 28 29 29 30 31 31 32 32 33 34 35 36 37 38 39 40 41 41 42 43
59 58 56 54 52 51 49 47 44 42 41 40 39 37 35 33 32 31 30 30 30 29 29 29 30 30 31 32 32 33 33 34 35 36 37 38 39 40 41 42 42 43 44
61 60 58 56 53 52 50 48 46 44 42 41 40 38 37 35 34 32 31 31 30 30 30 30 31 31 32 33 33 33 34 34 35 37 38 39 40 41 42 43 43 44 45
61 60 59 58 55 53 51 49 47 45 43 41 41 39 37 36 35 33 32 31 31 31 31 31 32 33 33 33 34 34 34 35 36 37 38 39 40 41 42 43 44 45 47
61 59 59 58 57 54 52 51 49 47 44 42 41 40 38 37 36 34 33 32 32 32 32 33 33 33 33 34 33 34 35 36 37 38 39 40 41 42 43 44 45 46 48
62 61 59 59 58 55 52 51 49 47 45 44 43 41 39 37 36 35 34 33 33 33 33 33 33 34 34 34 34 35 36 37 38 39 40 41 42 43 44 45 46 47 48
62 62 60 60 59 57 53 52 50 48 48 46 45 42 39 37 37 36 35 34 34 34 34 34 34 34 34 34 35 36 36 37 38 40 41 41 42 43 44 45 46 48 49
61 60 59 59 59 57 54 52 50 48 47 45 44 43 41 39 37 36 35 35 35 35 35 34 34 34 34 35 36 36 37 38 39 40 41 42 43 44 45 46 47 49 50
59 60 59 58 58 57 56 52 49 47 47 45 44 43 41 40 38 37 36 35 35 35 35 35 34 34 34 35 36 37 37 38 40 41 41 42 43 44 45 46 48 50 52
58 59 59 59 58 57 56 55 51 47 47 45 44 43 42 40 39 38 37 35 34 34 34 35 35 34 34 35 36 36 37 39 40 41 41 42 43 45 46 48 49 51 53
55 58 59 59 59 59 57 56 53 47 46 45 44 43 41 40 38 37 36 35 34 34 34 34 35 34 34 34 35 37 38 38 39 40 41 42 44 46 47 48 50 52 54
54 56 56 58 58 57 55 55 54 48 45 44 43 42 40 38 37 37 36 35 34 33 33 34 34 34 34 34 36 37 37 38 39 40 41 43 45 46 47 49 51 53 55
51 53 53 56 56 56 55 53 52 51 47 44 43 41 39 38 37 36 35 35 34 34 33 33 33 34 34 35 36 37 37 38 39 40 42 43 45 47 48 50 52 54 56
50 51 53 54 54 55 53 51 50 50 48 44 42 41 40 38 37 36 35 34 33 33 33 33 33 34 34 35 35 36 37 37 39 40 42 44 46 48 49 51 53 55 56
49 50 51 53 52 51 51 50 48 48 47 43 41 40 38 37 36 35 34 33 32 32 32 32 33 33 34 34 34 36 36 38 39 41 43 44 46 48 50 51 54 55 56
48 48 50 52 51 49 49 48 47 45 44 43 41 39 37 36 35 34 32 32 31 32 32 32 32 33 33 34 35 36 37 38 39 42 43 45 47 49 50 52 54 55 56
46 45 46 48 50 49 47 46 44 42 42 40 39 38 36 35 34 32 31 31 31 31 32 32 33 33 33 34 34 35 36 38 40 42 43 45 47 49 50 52 53 55 55
46 45 43 44 47 47 46 45 43 41 40 39 37 36 35 34 32 32 31 31 30 31 31 31 32 33 33 33 34 35 36 38 40 42 44 46 48 49 50 51 53 54 55
45 45 42 41 44 45 45 45 44 40 38 37 36 35 35 34 32 32 31 30 30 31 31 31 31 32 33 33 33 34 36 38 40 43 44 46 47 48 50 52 53 54 55
45 45 43 42 43 44 45 44 42 39 38 37 36 35 34 33 32 31 30 30 30 31 30 31 32 32 32 32 33 34 36 38 41 43 44 45 47 48 50 51 52 53 54
43 45 43 42 42 43 44 42 43 40 38 37 36 35 34 33 32 31 30 30 31 30 30 31 31 32 31 31 33 34 36 39 41 42 43 45 47 48 50 52 52 53 53
42 44 43 42 42 42 43 43 42 41 39 37 36 35 34 34 33 31 30 30 30 30 30 30 30 30 31 32 33 35 37 39 40 42 43 45 47 48 50 52 52 52 52
40 43 43 43 43 42 42 43 42 39 38 37 37 36 35 35 34 32 31 30 29 29 29 29 30 31 31 32 34 35 37 39 40 42 44 46 47 48 49 50 51 51 52

GEFSMA_500_meanwind_168.txt.gz
Wind_Speed
51 50 48 47 47 46 44 42 41 41 39 37 36 35 34 33 32 30 29 28 28 28 27 26 25 25 25 26 26 27 28 29 30 31 33 34 34 35 36 37 37 38 39
54 53 51 51 49 49 47 45 44 43 42 40 39 38 37 35 33 32 31 30 29 28 28 27 27 27 27 27 27 28 29 30 31 32 33 35 35 36 37 37 38 39 40
58 57 54 54 53 52 50 48 46 45 44 42 41 40 39 37 35 33 32 31 30 29 29 28 28 28 28 28 28 29 30 31 32 33 34 35 36 37 37 38 39 40 41
61 60 57 57 56 54 53 51 49 47 46 44 43 42 40 39 37 35 33 32 31 30 30 29 29 29 29 29 29 30 31 32 33 34 35 36 36 37 38 39 40 41 42
63 63 60 59 59 57 55 54 52 50 48 46 44 43 42 41 38 36 34 33 32 31 31 30 30 30 30 30 30 31 32 33 34 35 35 36 37 38 38 39 41 42 43
64 64 63 62 61 60 58 57 55 51 50 48 46 44 43 42 40 38 36 35 33 32 31 31 30 30 30 31 32 33 33 34 35 35 36 37 37 38 39 40 42 43 44
63 63 64 64 63 62 60 58 57 54 53 51 48 45 44 43 42 40 37 36 34 33 32 31 31 31 31 32 33 33 34 35 35 36 37 37 38 39 40 42 43 43 44
62 63 63 64 63 63 61 60 59 57 55 53 50 47 45 44 43 40 39 37 35 33 33 33 32 32 32 33 33 34 35 35 36 37 37 38 39 40 41 42 43 44 45
61 61 60 62 63 63 62 61 60 58 56 53 51 48 45 44 42 41 40 38 35 34 34 34 33 33 33 33 34 34 35 36 37 38 38 39 40 41 42 43 44 45 46
59 60 60 60 61 62 61 59 60 60 58 55 52 49 46 44 43 42 41 39 36 35 34 34 34 34 34 34 35 35 36 36 37 38 38 39 40 41 42 43 44 45 47
57 57 58 59 59 60 59 58 59 59 57 56 53 50 47 45 44 43 42 40 38 36 35 35 34 34 36 35 35 36 37 37 38 38 38 39 41 41 42 43 44 46 48
56 56 57 58 58 58 58 58 59 58 57 55 54 52 48 45 44 44 42 40 39 38 37 36 35 35 36 36 36 36 36 37 37 38 39 40 40 41 42 43 45 47 48
55 55 56 56 57 57 57 57 59 58 57 55 54 52 49 46 43 44 43 41 40 39 38 37 36 36 37 37 37 36 36 36 37 38 39 40 41 41 42 44 45 47 49
54 54 55 55 55 56 56 57 59 58 57 55 54 52 50 48 44 45 44 42 41 39 38 38 37 37 37 36 37 36 36 36 37 39 39 40 41 41 43 44 46 48 49
54 53 53 52 54 56 56 56 57 57 56 55 53 52 52 49 46 45 45 43 41 39 39 37 37 37 36 35 36 36 36 37 37 38 39 40 41 42 43 45 46 48 50
52 52 52 51 52 55 55 55 56 56 56 55 53 52 52 50 47 45 45 42 41 40 38 37 37 36 35 35 35 35 36 37 38 39 39 40 41 43 43 45 47 49 51
51 50 49 49 52 54 53 52 55 55 55 54 53 52 52 50 46 45 44 42 41 40 38 37 36 36 35 35 34 34 36 37 38 38 39 40 42 42 44 46 48 50 53
47 48 48 48 51 52 50 50 53 54 54 53 51 51 50 49 47 45 43 42 41 40 38 37 36 35 34 33 34 35 35 36 37 38 39 40 41 42 44 46 49 51 53
44 46 46 46 48 50 49 49 52 53 52 51 51 51 50 49 47 45 43 41 40 38 37 36 36 34 33 32 33 34 35 36 37 38 39 40 41 43 45 47 50 52 54
42 43 43 45 47 46 46 48 49 51 50 49 50 50 49 49 47 44 42 40 39 38 36 35 35 34 33 32 33 34 35 36 37 37 39 40 42 44 46 48 50 52 53
40 41 41 44 44 42 43 45 47 47 48 47 48 49 48 46 44 42 41 40 39 36 35 34 34 33 32 32 32 32 34 35 36 37 39 41 43 45 47 48 50 51 52
38 39 40 43 42 40 41 43 44 44 44 45 45 46 46 46 44 42 41 39 36 35 34 34 33 32 31 31 31 32 33 34 35 37 39 42 44 45 47 48 50 51 51
36 38 39 40 42 41 40 40 43 43 43 43 43 44 44 44 44 41 38 36 35 35 35 33 31 30 31 31 32 32 33 34 36 38 40 42 44 45 47 48 49 50 51
34 35 36 38 40 40 39 40 41 41 41 41 41 41 42 43 42 39 37 36 36 35 34 33 32 30 31 32 32 32 33 35 37 39 41 42 43 45 46 47 48 49 50
31 32 35 37 39 40 40 40 40 41 40 39 38 38 40 41 39 38 37 36 35 34 34 33 32 31 30 31 32 32 33 35 37 39 41 42 43 45 45 46 48 49 50
32 33 35 35 37 39 40 40 39 39 39 38 38 38 38 37 36 37 37 36 35 33 33 33 31 30 31 31 31 32 33 35 37 39 40 42 43 43 43 45 47 49 49

GEFSMA_500_meanwind_174.txt.gz
Wind_Speed
52 52 51 50 50 49 47 46 45 44 42 42 41 40 39 37 36 36 35 34 33 32 31 29 28 28 27 26 26 26 26 26 26 27 28 28 30 31 32 32 33 34 34
56 55 54 53 53 52 51 49 48 47 46 45 44 43 42 40 38 38 38 36 34 33 31 31 29 29 28 27 27 27 27 27 27 28 29 30 31 32 32 33 34 35 35
59 59 57 56 56 55 54 53 51 50 49 48 47 46 45 43 41 40 40 39 37 35 33 32 30 30 29 28 28 28 28 28 28 29 30 31 32 33 34 35 35 36 36
63 62 60 59 59 58 57 56 55 54 52 51 50 49 48 46 44 43 41 41 39 37 35 33 32 31 31 30 29 29 29 29 30 30 31 32 33 34 35 36 36 37 37
65 65 64 62 61 61 60 59 58 57 56 55 54 52 51 49 47 45 43 42 41 39 37 36 35 33 32 31 30 31 31 31 31 31 32 33 34 36 36 37 37 38 38
65 66 66 65 64 63 62 61 61 60 58 57 56 55 53 52 50 48 46 44 43 40 39 38 37 35 34 32 31 32 32 32 32 33 33 34 35 36 37 37 38 38 39
65 66 66 66 65 64 64 64 63 62 61 60 58 57 55 54 51 50 48 46 44 42 41 39 37 37 35 34 32 32 33 33 33 34 34 35 36 36 37 38 39 39 39
64 66 65 66 66 66 66 66 65 64 63 61 60 58 57 55 53 50 49 48 46 44 43 41 39 37 36 35 34 34 34 34 35 35 35 36 36 37 38 39 39 39 40
62 64 64 65 66 67 66 66 65 65 63 62 61 60 59 56 54 52 51 49 47 46 44 42 40 38 38 36 36 35 35 35 35 36 37 37 37 37 38 39 40 40 41
60 61 62 62 63 63 63 62 63 63 62 62 62 61 61 58 56 54 53 51 48 46 44 42 41 40 39 38 37 36 36 36 36 36 37 37 37 38 39 39 40 40 41
59 59 60 60 60 60 60 60 60 61 61 60 61 61 61 59 57 56 54 52 49 47 45 43 42 41 40 39 39 37 36 37 37 37 37 38 38 38 39 39 40 41 42
58 59 60 59 57 59 60 60 59 59 59 59 59 59 60 59 57 55 54 52 50 48 46 43 42 42 41 40 39 38 37 37 38 38 38 38 39 39 39 40 40 41 41
55 57 58 59 57 57 58 59 59 58 57 58 57 57 58 58 57 56 55 53 51 49 47 44 42 42 42 41 40 39 38 38 38 38 38 39 40 40 40 40 40 40 42
52 54 57 57 56 55 56 56 57 58 58 57 56 55 56 57 56 55 54 53 51 50 48 45 44 43 42 41 41 40 39 38 38 38 38 38 39 40 40 39 40 40 42
50 51 54 55 55 55 56 56 55 57 58 57 55 55 55 56 56 54 53 51 50 50 48 45 44 42 41 41 40 40 39 38 38 38 38 38 39 40 39 39 40 41 43
46 49 52 53 53 54 55 56 54 55 56 56 55 54 53 55 57 55 52 51 51 50 48 45 44 43 42 40 39 40 39 38 38 38 38 39 40 39 39 39 40 42 44
43 45 49 51 51 53 55 56 54 53 53 53 53 53 52 54 55 53 51 50 50 50 49 47 45 43 42 40 40 39 38 37 37 38 39 40 39 38 38 39 41 42 44
40 42 46 47 48 50 52 53 53 52 51 52 51 51 52 54 53 51 50 50 50 50 50 48 45 43 42 41 41 40 38 38 38 38 38 39 38 38 38 40 41 43 45
37 39 41 43 45 47 49 49 51 51 50 50 51 51 51 52 51 50 49 49 49 50 50 49 46 43 41 40 40 39 37 38 37 37 38 39 38 38 39 41 42 43 46
36 36 37 40 42 44 46 47 49 49 49 49 50 50 50 50 49 49 49 48 48 49 49 47 45 43 40 39 39 38 37 37 36 37 37 37 38 39 40 41 42 44 46
32 33 34 36 38 40 43 45 47 46 45 46 47 48 49 49 49 49 48 47 47 48 47 45 44 43 40 39 38 37 37 36 36 35 36 37 38 39 40 41 42 45 47
30 31 32 33 36 39 42 43 44 43 42 43 45 47 48 49 50 49 47 46 46 46 44 45 44 41 39 38 37 37 36 36 35 35 36 37 38 39 40 41 43 45 48
29 29 30 33 36 37 39 40 41 41 41 41 42 44 46 46 49 47 45 44 44 43 42 43 41 39 39 38 36 36 36 35 35 35 35 37 38 39 40 41 43 45 47
27 28 29 29 33 35 37 39 40 40 42 40 40 42 44 44 45 44 43 42 41 40 40 40 39 39 38 37 36 34 35 36 35 35 35 36 37 38 39 41 43 45 45
25 27 28 29 31 32 34 35 36 38 40 40 41 41 42 42 42 42 41 40 39 40 39 39 37 37 36 35 35 34 34 35 34 34 34 35 36 37 38 40 41 42 43
25 26 28 29 31 31 31 31 33 35 37 39 40 40 40 39 39 40 40 39 39 38 38 37 37 36 34 34 34 33 33 33 33 33 33 34 35 36 37 39 41 41 42

GEFSMA_500_meanwind_180.txt.gz
Wind_Speed
54 53 53 53 52 51 50 49 49 48 48 47 46 44 43 42 41 39 39 38 36 35 35 34 34 33 32 31 30 30 30 29 29 29 28 28 28 29 30 31 31 31 32
56 56 56 56 55 54 53 52 51 51 50 50 49 48 46 45 44 42 41 40 39 37 37 36 35 35 34 33 32 32 31 30 30 30 30 30 30 31 31 32 32 32 33
57 58 58 58 58 57 57 55 54 53 53 52 52 51 50 48 47 45 43 43 42 40 39 38 37 36 36 35 34 33 32 32 31 31 31 31 32 32 33 33 33 34 34
59 59 60 60 60 59 59 58 57 56 55 55 54 53 52 51 50 48 46 45 45 43 42 40 39 38 37 36 35 34 34 33 33 32 32 32 33 33 34 34 34 35 36
58 59 60 60 61 60 60 59 59 59 58 58 57 55 54 53 52 51 49 48 47 46 44 43 42 40 39 38 37 35 35 35 34 33 33 34 34 34 35 35 36 36 37
58 58 59 60 61 61 61 61 61 61 61 60 59 58 57 56 55 54 53 51 49 48 46 45 44 42 41 39 39 37 37 36 35 35 35 35 35 35 36 37 37 38 38
57 57 59 60 60 61 62 63 63 62 62 61 61 61 59 58 57 56 55 53 52 50 49 48 46 45 43 41 40 39 39 38 37 37 36 36 36 37 37 37 38 39 39
56 57 58 59 60 61 62 63 63 63 62 62 62 62 61 59 58 57 56 55 53 52 51 49 48 47 45 43 43 41 41 41 40 38 37 37 38 38 38 38 39 40 40
56 56 56 57 58 59 61 62 63 63 62 62 61 62 61 60 59 58 58 57 55 54 53 51 50 49 47 44 44 43 42 41 40 40 38 38 38 39 39 39 40 40 40
57 57 56 57 58 58 59 60 61 61 61 62 61 62 62 61 61 59 58 57 56 56 54 54 52 50 48 46 45 44 43 41 41 41 39 38 39 40 40 40 41 41 41
56 56 56 56 56 57 57 58 59 59 59 60 60 60 61 61 60 59 57 56 56 55 55 53 53 51 49 48 46 45 44 43 41 40 39 39 41 41 41 42 41 40 41
55 55 55 55 56 56 56 57 57 57 58 58 58 59 59 59 58 57 56 55 55 55 55 53 53 52 50 49 47 45 45 43 42 42 40 40 42 41 41 42 41 41 41
54 55 55 55 55 56 56 56 55 56 57 57 55 56 58 58 57 56 56 55 54 54 55 54 52 51 49 49 48 46 45 43 43 43 42 40 41 41 41 42 41 41 41
51 53 53 54 54 54 54 54 54 55 56 56 54 53 55 56 56 54 54 54 54 54 53 52 51 50 50 49 48 47 46 44 43 44 43 42 41 41 42 42 41 41 42
51 51 52 51 52 52 52 53 53 53 55 55 53 52 52 52 53 53 53 54 53 52 50 49 49 48 49 48 47 47 46 45 45 45 44 43 42 42 42 42 41 42 42
49 50 49 50 50 50 50 51 51 52 53 54 53 51 49 50 51 52 53 52 52 50 49 47 47 47 47 47 46 46 47 46 45 43 43 41 41 41 41 41 42 42 42
47 49 49 49 49 49 48 48 48 49 51 53 53 51 49 49 50 51 52 51 50 50 49 47 47 46 45 46 45 45 46 46 44 43 42 41 41 41 41 42 42 42 42
45 46 46 47 47 47 47 47 47 47 49 51 52 50 48 48 49 50 51 50 49 48 47 46 46 45 45 45 44 44 44 45 45 43 41 41 41 40 41 41 41 41 41
42 42 43 43 44 44 44 44 46 46 47 48 48 47 46 47 47 49 50 49 47 47 46 45 46 45 44 43 43 44 43 43 42 41 41 41 40 39 39 40 40 40 41
40 40 40 40 40 41 41 41 43 44 45 46 45 45 45 45 46 47 47 47 46 44 45 45 45 44 43 42 42 42 41 41 40 40 42 41 39 39 39 39 39 40 40
38 37 36 35 36 37 38 39 40 41 42 44 44 43 43 42 43 44 44 45 45 43 43 45 45 43 42 42 42 40 40 39 40 40 40 39 39 38 38 38 40 40 40
35 34 33 33 33 34 35 35 36 37 40 42 42 40 40 40 41 43 43 43 43 41 41 44 44 42 40 40 39 38 38 38 39 39 37 36 36 37 37 38 38 39 41
32 31 30 29 29 30 31 33 34 36 38 39 40 38 38 40 40 40 40 41 41 40 40 42 43 42 41 39 38 37 36 37 37 36 35 34 34 35 35 36 37 38 39
28 28 26 27 27 27 29 30 32 34 35 36 37 36 37 38 38 38 39 40 40 39 40 40 40 40 41 40 38 36 35 35 34 34 34 33 33 33 35 36 37 38 39
25 24 24 24 24 25 27 28 30 31 33 34 34 35 37 36 36 36 37 38 38 38 38 37 38 39 40 39 36 35 34 33 31 31 32 31 31 32 33 35 37 38 38
23 22 21 20 21 21 23 26 28 30 31 31 32 33 34 34 34 35 35 35 35 36 36 36 37 37 38 37 35 34 33 31 30 29 30 30 30 32 33 35 37 37 38

GEFSMA_500_meanwind_186.txt.gz
Wind_Speed
48 48 48 48 49 49 49 49 49 49 49 49 48 47 46 45 44 43 42 41 40 39 38 37 37 37 36 35 34 34 34 33 33 33 33 32 32 32 32 32 32 32 32
50 50 50 50 51 52 52 52 51 51 51 51 50 49 48 48 47 46 45 45 43 42 41 40 39 39 38 38 37 36 35 35 35 34 34 34 34 34 34 34 33 33 33
52 52 52 52 53 54 54 54 54 54 53 54 53 53 51 50 50 49 48 47 46 45 44 43 42 41 40 40 39 38 37 37 37 36 36 36 35 35 35 36 35 35 34
54 54 54 54 55 56 56 56 56 56 56 55 55 54 54 53 52 52 51 50 49 48 47 45 44 43 43 42 41 41 40 40 39 38 37 37 36 36 35 36 36 35 35
55 56 56 57 57 57 57 58 58 58 58 57 57 57 57 56 55 54 54 52 51 50 49 48 47 46 45 44 44 43 42 41 41 39 39 38 38 37 37 37 36 36 36
55 56 57 58 58 57 58 59 60 60 60 60 60 59 59 58 57 56 55 55 53 53 52 51 50 48 47 46 46 45 44 43 42 41 41 40 39 38 38 38 38 37 37
54 55 56 57 58 58 59 60 60 61 61 60 60 60 59 59 59 58 58 57 56 55 54 53 53 51 49 48 47 46 46 45 44 43 43 42 41 40 40 39 38 39 39
53 54 54 55 57 57 57 59 59 59 59 59 59 60 60 59 60 59 60 59 58 57 57 56 54 53 52 51 50 49 48 47 45 44 44 42 42 42 41 40 40 40 39
51 52 52 53 54 54 55 57 57 57 58 58 59 60 60 60 59 59 60 60 59 58 58 57 56 56 55 54 52 50 50 48 47 45 45 44 43 43 42 42 41 41 41
50 50 50 51 52 52 52 53 54 55 57 57 57 59 59 59 59 59 59 58 57 58 58 58 57 57 57 55 53 52 52 50 48 47 47 45 44 44 43 42 43 42 42
48 48 49 49 50 51 52 53 53 54 55 56 55 57 57 58 58 58 58 57 57 58 58 57 57 56 56 56 55 54 53 52 50 49 48 47 45 44 43 42 43 43 43
47 47 48 50 51 52 51 52 53 54 55 55 55 55 56 57 57 57 58 57 57 57 57 56 56 55 54 55 55 54 54 53 51 50 49 48 46 45 43 43 43 43 43
47 48 49 50 51 52 52 52 54 54 54 54 55 55 56 57 57 57 58 57 55 54 55 55 56 54 53 54 53 53 53 52 51 51 49 48 46 45 44 44 44 43 43
48 47 48 50 50 51 52 52 53 53 54 55 55 56 55 56 57 56 57 56 55 54 53 53 53 53 53 54 53 52 52 52 51 51 50 49 47 46 45 45 43 43 43
46 47 48 49 50 50 51 51 52 52 53 54 54 55 55 55 55 54 54 55 54 53 52 51 51 51 53 53 52 52 51 51 50 50 49 48 48 47 45 45 43 43 43
46 47 47 49 50 51 52 52 52 52 52 52 52 52 53 53 53 52 52 52 51 51 50 50 50 49 50 51 52 52 51 49 49 49 48 48 47 46 45 45 44 44 43
46 47 47 49 49 50 51 51 51 51 51 50 50 50 49 50 50 50 51 51 49 48 47 47 47 47 48 49 50 50 50 49 48 48 48 47 46 46 45 44 44 43 42
46 46 46 46 47 48 50 51 50 49 49 48 48 48 47 48 49 49 48 49 47 46 47 47 46 46 46 47 47 48 47 47 47 47 47 46 46 46 45 43 44 43 42
45 45 44 45 46 47 47 47 47 47 47 47 47 45 44 46 46 46 47 47 46 45 45 46 45 45 44 45 45 46 47 48 46 46 45 45 45 45 44 45 44 42 42
43 44 43 44 45 44 44 43 44 45 44 43 44 43 43 44 44 44 45 46 45 43 43 43 43 43 43 43 43 44 45 45 45 46 44 44 45 44 44 45 43 42 41
43 43 42 42 42 42 42 42 42 42 40 39 40 40 40 41 41 42 44 44 44 42 42 42 42 41 41 41 41 42 43 43 43 43 43 43 43 43 44 43 41 41 41
42 42 41 40 40 40 40 39 39 38 37 36 37 38 38 39 40 41 43 43 43 41 40 41 41 41 40 40 40 40 40 41 41 40 40 39 40 40 41 39 39 39 39
41 40 39 38 37 37 36 36 35 35 34 34 34 35 35 36 38 40 40 40 40 40 39 40 39 39 39 39 38 37 38 39 38 38 38 38 39 38 37 38 38 37 37
39 38 37 36 35 34 32 32 32 31 31 31 32 33 33 33 35 36 37 37 37 38 37 37 37 38 38 38 38 36 36 36 36 37 37 36 36 36 35 36 36 35 36
36 35 33 32 31 29 28 28 27 27 28 28 29 30 29 31 33 35 35 35 36 37 36 35 34 35 35 35 36 35 35 35 33 33 34 34 34 33 32 32 33 34 35
33 32 32 30 27 25 24 24 25 25 24 25 26 27 26 28 30 32 34 35 35 36 35 34 34 33 34 34 34 33 33 33 32 32 32 32 32 30 29 30 30 31 31

GEFSMA_500_meanwind_192.txt.gz
Wind_Speed
43 43 43 44 44 44 44 45 45 46 46 46 45 45 45 44 44 43 43 43 42 42 41 41 40 39 39 39 38 37 36 36 36 36 35 35 35 34 34 33 33 33 33
45 45 46 46 47 47 47 47 48 48 48 48 48 48 48 47 47 47 47 46 46 45 44 43 42 41 41 41 40 40 39 38 38 38 38 37 37 37 36 35 34 34 34
47 47 48 49 49 50 50 50 50 51 51 51 51 51 51 51 51 50 50 49 48 48 46 45 45 43 43 43 42 42 41 41 41 40 39 38 38 38 38 37 37 36 36
48 49 50 51 51 52 52 52 52 52 53 54 54 53 53 53 53 52 52 51 50 50 49 48 48 47 46 45 45 44 43 43 42 42 42 40 40 40 39 39 38 38 37
49 50 50 51 52 53 53 53 54 54 54 55 56 56 55 55 54 54 54 53 53 52 52 51 50 49 49 48 47 47 46 45 44 44 44 43 42 41 41 40 40 40 39
49 50 50 51 52 53 54 54 54 55 56 57 58 57 57 56 56 55 55 54 54 54 53 53 52 52 52 50 49 49 48 47 47 46 46 45 44 43 43 42 42 42 41
49 50 50 51 51 52 53 53 54 55 57 58 58 58 57 57 57 56 56 56 56 55 56 55 54 53 53 52 51 51 50 49 49 48 47 47 47 45 45 44 43 43 42
47 48 49 49 50 51 52 52 53 54 55 57 57 58 58 57 57 56 56 56 56 56 56 56 55 54 53 53 53 52 52 52 51 51 50 49 48 47 45 45 44 43 43
46 47 48 50 50 51 52 53 53 54 55 55 56 57 58 58 57 57 57 57 57 56 55 55 56 55 54 55 55 54 53 53 53 52 51 50 49 48 46 47 46 44 43
45 48 49 50 51 52 52 52 52 53 54 54 55 57 58 58 58 57 56 56 57 57 57 56 55 55 55 55 55 55 54 55 55 53 53 52 51 50 49 48 47 46 45
46 47 49 49 50 51 51 52 52 52 52 53 54 56 57 58 58 57 56 56 57 57 58 57 56 56 56 56 56 56 55 56 55 55 54 53 53 52 50 50 49 48 47
46 47 47 49 49 50 51 51 51 52 52 53 53 54 54 55 56 57 56 56 56 56 58 57 57 57 57 57 57 56 55 55 55 55 54 54 54 52 52 51 49 48 47
46 46 47 48 49 50 50 51 51 52 52 52 52 53 54 55 55 56 56 55 54 54 56 57 57 58 59 58 56 55 55 55 55 55 55 54 54 53 53 51 51 49 47
46 46 47 48 49 49 50 50 51 51 51 51 52 53 53 54 55 54 55 55 53 52 52 54 55 56 58 58 57 57 56 56 56 55 55 54 54 54 53 52 52 50 48
47 47 47 47 48 50 50 50 50 50 51 51 51 51 52 53 54 53 52 52 53 51 50 51 53 53 54 55 54 54 54 55 56 55 54 54 54 53 53 52 52 52 50
48 48 47 47 48 49 49 49 50 50 51 50 50 50 50 50 50 50 50 50 50 49 48 47 49 51 52 51 51 51 51 52 53 54 54 54 53 52 53 53 53 51 51
47 47 46 47 48 48 49 49 49 50 50 50 50 49 49 49 49 48 48 47 46 46 46 43 44 46 48 48 48 49 48 49 49 50 50 51 51 51 52 52 52 51 49
47 47 47 47 47 47 48 48 49 49 49 50 49 49 48 48 47 47 47 46 45 44 44 42 41 42 44 45 46 47 47 47 46 46 46 48 49 49 50 50 50 49 49
46 47 47 47 47 47 47 48 49 49 49 49 49 48 47 47 46 46 45 44 43 42 41 41 40 41 42 43 44 44 45 44 45 44 44 46 47 48 49 49 48 48 48
45 46 46 46 46 46 47 48 49 48 48 47 47 46 46 45 45 45 44 43 42 41 40 40 39 40 40 39 40 41 42 43 43 42 43 45 45 45 47 47 47 47 47
44 45 45 45 46 47 48 48 48 47 46 44 44 44 44 44 43 43 42 41 40 40 39 38 38 39 38 37 39 40 41 42 41 41 41 42 42 42 44 44 45 44 45
42 43 44 45 45 46 46 47 47 45 43 42 41 40 40 40 39 39 40 39 39 38 37 36 36 37 36 36 37 39 40 40 39 38 38 38 39 39 40 41 41 41 41
41 42 42 43 43 44 45 44 43 42 40 39 37 36 35 35 36 36 37 37 36 35 35 34 34 34 33 33 34 36 36 36 37 36 36 35 36 36 36 37 38 38 39
40 41 41 42 42 42 42 41 40 38 36 34 32 32 32 32 32 32 33 33 33 33 33 33 33 32 32 32 32 32 33 32 33 34 35 35 35 35 35 36 36 36 36
40 40 40 40 39 38 38 38 37 35 32 30 29 28 29 29 29 29 29 30 30 31 31 31 31 31 30 30 30 30 30 30 32 32 32 31 32 34 34 33 32 33 34
37 37 37 37 37 37 37 35 34 32 30 28 27 27 27 27 28 28 28 29 29 28 28 30 30 30 29 28 28 28 27 27 27 28 28 28 29 30 31 30 29 30 31

GEFSMA_500_meanwind_198.txt.gz
Wind_Speed
38 39 39 40 40 41 41 42 42 42 42 42 43 43 44 44 44 44 44 43 43 43 43 43 43 43 42 42 41 41 40 40 40 40 39 39 39 38 37 36 35 34 34
40 41 41 41 42 42 43 43 44 44 44 44 45 45 46 46 47 47 47 47 46 46 46 46 45 45 45 45 44 43 42 42 42 41 41 41 40 40 40 38 37 36 36
40 41 42 42 43 43 43 44 45 46 46 47 47 48 48 48 48 49 49 49 49 49 49 48 48 48 48 48 47 46 45 44 44 44 44 43 43 42 42 41 39 39 38
41 42 42 43 44 45 45 45 46 47 47 48 49 50 51 51 51 51 51 51 51 51 51 51 51 51 51 50 50 49 48 48 46 46 47 46 45 44 43 43 42 41 41
42 43 44 45 45 46 47 48 48 48 49 49 50 51 52 52 52 53 53 53 53 53 53 53 53 53 53 53 52 51 51 50 49 48 49 49 48 47 45 45 44 43 43
42 44 45 46 47 48 49 49 49 49 50 50 50 50 51 52 53 53 53 54 55 55 55 55 55 55 54 54 53 53 53 52 52 51 51 51 51 49 47 47 46 46 44
43 44 46 47 47 48 49 49 49 49 49 49 49 50 50 52 53 54 54 54 54 55 55 55 55 55 54 55 55 55 54 54 54 54 54 53 52 51 50 49 48 47 46
42 43 45 45 46 46 47 48 49 49 49 51 52 53 52 53 54 54 55 55 55 55 56 55 55 55 55 55 56 56 55 56 56 56 55 54 53 52 52 51 50 49 48
42 42 43 43 44 46 46 47 49 50 50 51 52 53 54 54 54 54 54 55 55 56 57 55 55 55 55 56 58 57 57 57 57 57 56 55 54 54 53 52 52 50 49
41 42 43 43 44 45 46 47 48 50 51 51 52 53 54 54 55 54 54 55 56 56 56 56 56 56 55 57 58 59 59 59 58 58 57 55 55 55 54 54 53 52 52
41 42 43 43 44 45 45 46 47 49 51 52 52 53 54 56 56 56 55 55 55 56 57 57 57 57 56 57 58 58 59 60 60 60 59 56 56 55 54 55 55 54 53
41 42 43 44 45 46 46 46 47 49 50 51 52 53 54 56 57 57 56 55 55 55 57 57 57 58 58 56 56 57 58 59 60 60 60 58 57 57 56 56 56 55 54
42 43 43 45 45 45 46 47 48 49 50 52 53 54 55 56 56 56 56 56 56 56 57 56 55 56 56 55 54 55 56 57 59 59 59 59 58 57 56 56 56 56 56
43 44 45 45 45 46 47 47 48 50 51 53 54 54 54 53 54 55 56 56 56 55 54 54 54 54 54 53 53 54 54 56 57 58 59 59 59 58 57 57 57 56 57
43 44 45 46 47 47 48 48 49 50 51 52 53 53 53 52 53 53 54 55 55 53 51 51 52 53 54 54 52 52 53 54 54 56 57 58 58 58 58 57 56 56 56
44 45 45 46 47 47 47 48 49 50 51 52 52 52 52 52 52 53 53 53 53 52 49 48 49 50 51 51 50 48 49 50 51 52 55 56 55 56 55 54 54 55 55
45 46 46 46 46 46 47 48 49 51 52 52 51 51 51 52 52 52 51 51 50 49 47 45 45 46 47 47 47 46 46 47 49 49 51 52 52 51 51 51 52 53 53
44 45 45 45 45 46 47 48 49 50 50 50 50 50 50 51 50 49 49 49 48 46 46 43 42 43 44 44 44 42 42 43 45 46 48 48 47 48 48 49 49 50 50
43 44 44 45 45 46 47 48 49 48 48 49 50 50 50 49 48 47 47 46 46 44 44 42 41 41 41 41 40 39 39 40 40 40 41 43 43 44 46 47 47 47 47
42 43 44 44 45 46 46 47 47 47 47 48 49 49 48 46 45 44 44 43 43 42 41 39 39 38 39 39 39 38 37 37 37 37 37 37 38 40 42 44 45 45 44
42 42 43 44 45 45 46 46 46 46 46 47 46 46 44 43 42 41 41 41 40 39 38 38 37 36 36 36 36 36 36 34 33 34 34 34 36 38 38 40 41 41 41
41 42 42 43 43 44 44 44 45 44 44 43 42 41 40 39 39 39 39 38 37 37 36 35 35 34 34 35 35 35 34 34 32 33 34 34 34 35 36 37 38 38 39
40 41 41 41 41 41 41 42 42 42 41 40 39 37 37 37 38 38 37 35 34 34 34 33 33 32 32 32 32 33 34 33 33 33 33 32 33 34 33 34 34 35 36
39 39 39 39 39 38 38 39 38 38 38 38 37 36 36 36 36 36 35 33 32 33 33 32 31 31 30 30 30 31 31 31 31 32 32 32 31 31 32 32 33 33 33
37 37 37 36 36 35 36 37 37 37 36 36 35 35 35 34 33 33 31 30 30 30 31 29 28 28 28 28 29 29 29 29 29 29 29 29 28 28 29 30 30 30 30
35 35 34 34 34 34 35 35 35 35 34 33 32 32 31 31 30 29 28 28 28 28 28 27 27 26 26 26 26 26 26 27 27 26 27 27 27 26 26 26 27 28 28

GEFSMA_500_meanwind_204.txt.gz
Wind_Speed
30 31 31 32 33 33 34 36 37 38 39 40 41 41 41 41 41 41 41 41 41 41 42 42 41 41 42 42 43 43 43 43 42 42 41 41 41 40 40 40 40 39 39
31 32 33 34 35 35 36 37 39 40 41 42 42 42 42 42 43 43 43 43 43 44 43 44 44 43 44 45 45 44 44 44 45 44 44 44 44 43 42 41 40 40 40
33 34 35 36 37 37 38 39 40 42 42 43 43 43 43 43 44 44 44 44 45 45 46 46 47 47 47 48 48 46 46 46 47 47 47 47 46 46 45 44 43 42 42
36 36 37 37 38 39 40 41 42 43 43 43 43 43 44 44 45 45 46 46 47 48 48 49 49 49 50 49 49 48 48 48 48 49 49 49 48 48 47 46 45 44 44
37 37 38 38 39 40 40 41 42 43 43 44 45 46 46 46 46 47 47 48 49 50 50 50 51 51 51 51 50 50 50 50 49 50 51 51 51 50 49 48 47 46 46
38 38 39 39 40 40 41 41 42 43 44 45 46 47 47 48 48 48 48 49 50 50 51 52 52 52 52 51 51 51 52 52 52 52 53 53 53 52 51 50 49 49 48
38 39 40 40 41 41 42 43 44 44 45 46 47 47 47 48 48 48 49 50 50 51 52 52 53 53 54 54 54 54 54 54 54 54 55 55 55 54 53 52 51 51 50
38 39 40 41 42 43 43 44 45 45 46 46 47 47 47 47 48 48 49 50 51 52 52 53 54 54 56 56 55 55 55 56 56 55 56 57 56 56 56 54 53 53 52
39 40 41 42 42 43 44 45 45 46 46 46 47 48 49 49 49 49 50 51 52 53 53 54 54 55 56 57 57 57 57 56 56 56 57 57 57 57 57 57 55 54 54
40 40 41 42 43 44 45 45 46 46 47 47 48 49 50 51 52 51 51 52 52 53 54 55 56 56 56 56 56 57 57 56 56 56 57 57 57 57 57 57 57 56 56
40 40 41 42 43 44 45 46 46 47 48 48 49 49 50 51 53 54 53 53 53 53 54 55 56 56 55 55 56 57 58 57 57 56 56 56 56 56 57 57 58 58 57
40 41 41 42 43 44 45 46 47 48 48 49 48 48 49 50 52 53 55 54 54 54 55 55 55 55 56 56 56 57 57 57 57 56 56 55 54 55 56 56 57 57 57
40 41 42 43 43 44 45 45 46 46 47 47 47 47 49 51 52 53 54 54 54 54 54 54 54 54 55 56 56 56 56 56 55 55 55 54 53 53 54 54 56 57 56
41 42 43 43 43 43 43 44 44 45 46 47 47 48 50 51 52 53 54 55 55 53 53 53 53 54 54 55 54 54 53 53 53 54 54 53 52 53 53 53 53 55 55
42 43 42 42 42 43 44 45 46 46 47 47 48 49 50 51 51 52 54 56 56 55 53 52 53 53 53 53 52 51 51 51 50 50 51 50 50 50 50 50 50 52 53
41 41 41 42 43 43 44 45 46 47 47 48 48 48 49 50 51 53 54 55 56 56 54 51 52 52 52 51 50 49 48 47 46 46 47 46 46 46 46 46 47 49 49
41 41 41 42 42 43 44 46 46 47 47 48 48 48 49 50 51 53 53 53 54 55 54 51 51 50 50 48 47 46 45 44 43 42 42 41 41 41 42 42 44 46 47
41 42 42 42 43 44 45 45 46 47 48 48 48 49 50 51 51 52 52 52 52 53 53 51 49 48 47 45 44 43 42 41 40 39 39 38 38 38 38 39 40 42 44
42 43 43 43 44 45 46 46 46 47 47 48 48 49 50 51 51 51 51 50 50 49 49 48 46 44 42 42 41 39 38 38 38 39 38 36 36 35 36 37 38 39 40
43 43 43 44 44 45 45 46 46 47 47 47 48 48 49 50 49 49 48 47 47 46 45 44 43 40 38 38 38 37 36 36 36 37 37 36 35 34 34 35 35 36 37
43 44 44 44 44 45 45 45 46 46 46 46 47 47 47 46 46 45 44 44 43 42 41 40 39 38 36 34 35 34 34 33 33 34 34 34 33 32 32 32 33 34 35
44 44 44 43 43 44 45 45 46 46 46 46 45 45 44 43 43 42 41 41 41 40 39 37 36 35 34 31 31 32 32 30 30 31 32 31 31 31 30 31 31 31 33
43 43 42 42 42 43 44 45 45 45 44 44 43 43 42 42 41 40 38 37 37 36 36 35 34 32 32 31 30 29 29 29 28 28 28 28 29 28 29 29 28 29 30
41 41 41 41 42 43 43 43 43 42 41 41 40 40 40 39 39 38 37 36 35 35 35 34 33 32 31 30 28 28 27 27 26 25 26 26 25 24 24 24 26 27 28
39 39 40 40 40 40 40 40 39 38 37 37 37 37 37 37 37 37 36 35 34 33 32 31 31 30 28 28 27 26 25 25 24 23 23 23 22 21 21 22 22 24 25
39 38 38 38 38 38 38 37 36 35 34 34 34 34 35 35 35 35 34 33 32 31 30 29 29 27 26 26 25 24 23 23 23 22 21 22 20 19 19 19 20 21 21

GEFSMA_500_meanwind_210.txt.gz
Wind_Speed
30 30 30 30 30 31 31 31 32 32 33 33 34 35 35 36 37 38 39 39 39 40 40 40 40 41 41 41 42 42 42 42 42 43 43 44 43 43 43 43 43 43 43
30 30 30 30 30 31 32 33 33 34 34 35 36 36 36 37 38 38 39 40 41 41 42 42 42 43 43 44 44 45 45 45 46 46 46 46 46 46 45 46 46 45 44
29 29 30 30 31 32 32 33 34 35 36 36 37 37 37 38 39 40 41 42 43 43 44 44 44 45 46 46 47 47 48 48 48 49 49 48 47 47 47 47 48 47 46
30 30 31 31 32 33 34 35 36 36 36 37 38 38 39 40 40 41 42 43 44 45 45 46 47 47 48 48 49 49 50 50 51 51 51 50 50 49 49 49 49 49 48
31 31 32 32 33 34 35 36 37 37 37 38 39 40 40 41 42 43 44 44 45 46 47 48 48 49 49 50 50 51 51 52 53 53 53 52 51 51 51 51 50 51 51
32 32 32 33 34 35 35 36 37 38 38 39 40 41 42 43 43 44 45 46 47 47 48 49 49 50 50 51 51 52 53 54 55 54 54 54 53 53 53 53 52 53 53
32 33 34 34 35 36 36 37 38 38 39 40 41 43 44 44 45 46 47 47 48 49 49 50 51 51 52 53 53 53 55 56 56 55 55 55 54 54 54 54 54 54 54
34 35 35 36 36 37 37 38 39 39 40 42 43 44 45 45 46 47 48 48 49 50 51 51 52 53 53 55 55 55 55 56 57 56 55 56 56 55 55 55 54 56 56
35 36 37 37 37 38 38 39 40 41 42 44 46 47 46 45 46 46 46 47 48 49 50 51 53 54 55 56 57 57 57 57 57 57 56 57 57 57 57 57 57 57 58
36 37 38 38 38 39 40 41 41 43 44 45 46 46 46 46 46 45 45 46 47 49 50 52 53 54 56 56 56 57 57 57 57 58 58 57 58 58 57 57 57 57 58
37 38 39 39 39 40 41 41 42 42 44 44 45 45 45 47 47 47 46 46 47 48 50 52 53 55 56 56 57 57 56 56 57 58 58 57 57 57 57 56 56 56 55
38 39 40 40 40 41 41 41 42 43 44 45 45 45 46 47 47 48 49 48 48 48 50 52 53 55 55 56 57 57 57 57 56 56 57 57 57 56 56 56 56 56 55
38 39 40 40 41 41 41 41 42 43 44 44 45 45 46 47 48 49 50 49 49 49 50 51 54 55 55 56 56 56 57 57 57 56 56 56 56 56 55 56 56 56 56
39 39 40 41 41 41 41 41 42 44 44 44 45 46 46 47 48 49 50 51 51 50 51 52 53 54 54 55 56 56 56 56 56 56 56 55 55 54 54 55 56 55 55
39 40 40 40 40 40 41 41 43 44 44 45 45 46 47 48 49 50 51 53 53 53 52 52 53 53 54 55 56 56 56 55 54 54 53 52 52 52 52 52 53 53 53
39 39 39 39 40 40 41 42 43 44 45 46 46 46 47 49 50 50 51 53 54 55 54 52 52 52 53 54 54 54 54 53 52 52 50 50 49 49 49 48 48 48 49
39 39 39 40 40 41 42 43 44 45 45 45 46 46 47 48 49 50 51 52 53 54 54 51 51 51 51 51 50 51 51 50 49 48 47 47 46 45 44 43 43 44 44
40 40 40 41 41 42 42 43 44 45 45 45 46 47 47 49 49 50 51 52 52 53 52 50 49 48 48 47 47 47 47 46 44 44 43 43 42 41 40 39 39 40 40
40 40 40 40 41 42 42 43 44 44 44 45 46 47 48 49 49 50 50 51 51 51 50 49 47 46 45 45 44 43 43 42 41 40 39 39 39 38 37 36 36 36 35
39 40 40 41 41 42 42 43 43 44 44 45 46 47 47 48 48 48 48 48 48 48 47 46 44 43 42 41 41 40 39 38 37 36 35 35 34 34 33 32 31 31 31
39 39 40 40 41 41 42 43 43 44 44 45 46 46 46 46 46 46 46 46 46 46 45 43 42 41 40 38 37 37 36 34 33 33 32 31 31 30 29 28 28 28 27
37 38 39 40 41 42 43 44 44 44 45 45 45 44 44 44 44 45 45 45 44 44 43 41 40 39 37 36 35 34 32 31 31 31 30 28 28 27 26 26 27 26 26
37 38 39 41 42 43 44 44 44 44 44 44 43 42 42 42 43 43 43 43 42 42 41 39 38 38 35 33 33 32 30 29 28 27 26 25 24 24 25 25 26 26 26
38 38 39 41 42 43 43 43 42 42 42 42 41 41 41 42 42 41 40 40 39 38 38 37 37 35 34 32 31 30 28 27 25 23 23 22 22 23 24 24 24 25 25
37 38 40 41 42 42 41 41 40 40 40 40 40 40 40 40 40 40 39 38 37 36 36 36 35 33 32 32 31 28 26 25 22 21 22 22 22 22 22 22 23 23 24
37 38 39 40 40 39 38 38 39 39 39 38 38 37 37 38 38 38 37 36 35 34 34 33 31 30 31 30 28 26 24 22 21 20 20 21 21 21 22 22 23 22 22